Weather History for KLJF - April, 2012

Change the Weather History Date:

Tuesday, April 24, 2012

  Actual Average Record
Temperature  
Mean Temperature 58 °F -  
Max Temperature 71 °F 62 °F 88 °F (1962)
Min Temperature 44 °F 37 °F 24 °F (1956)
Degree Days  
Heating Degree Days 8    
Growing Degree Days 8 (Base 50)    
Moisture  
Dew Point 42 °F    
Average Humidity 55    
Maximum Humidity 87    
Minimum Humidity 33    
Precipitation  
Precipitation 0.00 in - - ()
Sea Level Pressure  
Sea Level Pressure 29.68 in    
Wind  
Wind Speed 7 mph (ESE)    
Max Wind Speed 14 mph    
Max Gust Speed 17 mph    
Visibility 10 miles    
Events      
Averages and records for this station are not official NWS values.
T = Trace of Precipitation, MM = Missing Value Source: NWS Daily Summary

Daily Weather History Graph

Daily Weather History Graph

Search for Another Location

Airport or City:

Trip Planner

Search our weather history database for the weather conditions in past years. The results will help you decide how hot, cold, wet, or windy it might be!

Date:

Astronomy

Apr. 24, 2012 Rise Set
Actual Time 6:17 AM CDT 8:15 PM CDT
Civil Twilight 5:45 AM CDT 8:47 PM CDT
Nautical Twilight 5:06 AM CDT 9:26 PM CDT
Astronomical Twilight 4:24 AM CDT 10:09 PM CDT
Moon 8:06 AM CDT (4/24) 11:43 PM CDT (4/24)
Length of Visible Light 15h 02m
Length of Day
13h 58m
Waxing Crescent, 10% of the Moon is Illuminated
Apr 24
Waxing Crescent
Apr 29
First Quarter
May 5
Full
May 12
Last Quarter
May 20
New

Hourly Weather History & Observations

Time (CDT) Temp. Windchill Dew Point Humidity Pressure Visibility Wind Dir Wind Speed Gust Speed Precip Events Conditions
12:13 AM 50.0 °F - 39.2 °F 66% 29.83 in 10.0 mi ESE 4.6 mph - N/A   Clear
12:33 AM 51.8 °F - 39.2 °F 62% 29.83 in 10.0 mi SE 4.6 mph - N/A   Mostly Cloudy
12:53 AM 51.8 °F - 39.2 °F 62% 29.82 in 10.0 mi SE 3.5 mph - N/A   Mostly Cloudy
1:13 AM 51.8 °F - 39.2 °F 62% 29.82 in 10.0 mi SE 4.6 mph - N/A   Scattered Clouds
1:33 AM 51.8 °F - 39.2 °F 62% 29.81 in 10.0 mi SE 5.8 mph - N/A   Scattered Clouds
1:53 AM 51.8 °F - 39.2 °F 62% 29.80 in 10.0 mi SE 5.8 mph - N/A   Scattered Clouds
2:13 AM 51.8 °F - 39.2 °F 62% 29.79 in 10.0 mi SE 5.8 mph - N/A   Scattered Clouds
2:53 AM 51.8 °F - 39.2 °F 62% 29.77 in 10.0 mi SE 5.8 mph - N/A   Clear
3:13 AM 48.2 °F - 39.2 °F 71% 29.77 in 10.0 mi SE 5.8 mph - N/A   Clear
3:32 AM 48.2 °F - 39.2 °F 71% 29.77 in 10.0 mi SE 5.8 mph - N/A   Clear
3:53 AM 44.6 °F 40.2 °F 39.2 °F 81% 29.76 in 10.0 mi ESE 8.1 mph - N/A   Clear
4:13 AM 48.2 °F - 41.0 °F 76% 29.76 in 10.0 mi SE 5.8 mph - N/A   Clear
4:32 AM 48.2 °F - 42.8 °F 82% 29.76 in 10.0 mi East 6.9 mph - N/A   Clear
4:53 AM 48.2 °F - 41.0 °F 76% 29.75 in 10.0 mi SE 8.1 mph - N/A   Scattered Clouds
5:13 AM 48.2 °F - 41.0 °F 76% 29.74 in 10.0 mi ESE 6.9 mph - N/A   Scattered Clouds
5:32 AM 48.2 °F - 42.8 °F 82% 29.74 in 10.0 mi East 10.4 mph - N/A   Mostly Cloudy
5:53 AM 46.4 °F 43.5 °F 41.0 °F 81% 29.73 in 10.0 mi ESE 5.8 mph - N/A   Clear
6:13 AM 46.4 °F 43.5 °F 42.8 °F 87% 29.73 in 10.0 mi SE 5.8 mph - N/A   Clear
6:32 AM 44.6 °F 41.4 °F 41.0 °F 87% 29.72 in 10.0 mi ESE 5.8 mph - N/A   Clear
7:13 AM 46.4 °F 43.5 °F 42.8 °F 87% 29.71 in 10.0 mi ESE 5.8 mph - N/A   Scattered Clouds
7:53 AM 51.8 °F - 44.6 °F 76% 29.71 in 10.0 mi ESE 11.5 mph - N/A   Scattered Clouds
8:13 AM 53.6 °F - 44.6 °F 72% 29.71 in 10.0 mi ESE 11.5 mph - N/A   Scattered Clouds
8:32 AM 53.6 °F - 44.6 °F 72% 29.71 in 10.0 mi East 9.2 mph - N/A   Clear
8:53 AM 55.4 °F - 44.6 °F 67% 29.71 in 10.0 mi ESE 11.5 mph - N/A   Clear
9:13 AM 57.2 °F - 44.6 °F 63% 29.70 in 10.0 mi ESE 11.5 mph - N/A   Clear
9:32 AM 57.2 °F - 42.8 °F 59% 29.69 in 10.0 mi SE 12.7 mph - N/A   Clear
9:53 AM 59.0 °F - 42.8 °F 55% 29.69 in 10.0 mi ESE 11.5 mph - N/A   Clear
10:12 AM 60.8 °F - 42.8 °F 52% 29.69 in 10.0 mi ESE 12.7 mph - N/A   Clear
10:33 AM 62.6 °F - 42.8 °F 48% 29.69 in 10.0 mi ESE 12.7 mph - N/A   Clear
10:53 AM 62.6 °F - 41.0 °F 45% 29.70 in 10.0 mi East 11.5 mph 16.1 mph N/A   Clear
11:12 AM 64.4 °F - 42.8 °F 45% 29.70 in 10.0 mi East 12.7 mph - N/A   Clear
11:33 AM 64.4 °F - 42.8 °F 45% 29.70 in 10.0 mi ESE 8.1 mph - N/A   Clear
11:53 AM 66.2 °F - 42.8 °F 43% 29.70 in 10.0 mi East 12.7 mph - N/A   Clear
12:13 PM 66.2 °F - 42.8 °F 43% 29.69 in 10.0 mi ESE 10.4 mph - N/A   Clear
12:33 PM 66.2 °F - 42.8 °F 43% 29.68 in 10.0 mi East 9.2 mph - N/A   Clear
12:53 PM 66.2 °F - 42.8 °F 43% 29.68 in 10.0 mi East 13.8 mph 17.3 mph N/A   Clear
1:13 PM 69.8 °F - 42.8 °F 38% 29.68 in 10.0 mi East 10.4 mph - N/A   Clear
1:33 PM 69.8 °F - 42.8 °F 38% 29.67 in 10.0 mi ESE 9.2 mph - N/A   Clear
1:53 PM 69.8 °F - 42.8 °F 38% 29.68 in 10.0 mi ESE 10.4 mph 16.1 mph N/A   Clear
2:12 PM 69.8 °F - 41.0 °F 35% 29.68 in 10.0 mi East 3.5 mph - N/A   Clear
2:33 PM 69.8 °F - 41.0 °F 35% 29.67 in 10.0 mi ESE 5.8 mph - N/A   Clear
2:53 PM 69.8 °F - 39.2 °F 33% 29.67 in 10.0 mi SE 6.9 mph - N/A   Clear
3:12 PM 71.6 °F - 42.8 °F 35% 29.66 in 10.0 mi ESE 10.4 mph - N/A   Clear
3:33 PM 71.6 °F - 41.0 °F 33% 29.65 in 10.0 mi East 4.6 mph - N/A   Clear
3:53 PM 71.6 °F - 41.0 °F 33% 29.64 in 10.0 mi East 6.9 mph - N/A   Clear
4:12 PM 71.6 °F - 41.0 °F 33% 29.64 in 10.0 mi ESE 5.8 mph - N/A   Clear
4:33 PM 71.6 °F - 41.0 °F 33% 29.64 in 10.0 mi East 5.8 mph - N/A   Clear
4:53 PM 71.6 °F - 42.8 °F 35% 29.64 in 10.0 mi ESE 4.6 mph - N/A   Clear
5:13 PM 69.8 °F - 39.2 °F 33% 29.63 in 10.0 mi ESE 8.1 mph - N/A   Clear
5:33 PM 69.8 °F - 42.8 °F 38% 29.63 in 10.0 mi ESE 5.8 mph - N/A   Clear
5:53 PM 69.8 °F - 42.8 °F 38% 29.63 in 10.0 mi East 6.9 mph - N/A   Clear
6:13 PM 69.8 °F - 42.8 °F 38% 29.62 in 10.0 mi ESE 8.1 mph - N/A   Clear
6:33 PM 68.0 °F - 42.8 °F 40% 29.61 in 10.0 mi ESE 8.1 mph - N/A   Scattered Clouds
6:53 PM 66.2 °F - 42.8 °F 43% 29.62 in 10.0 mi East 6.9 mph - N/A   Scattered Clouds
7:13 PM 66.2 °F - 44.6 °F 46% 29.61 in 10.0 mi ESE 5.8 mph - N/A   Scattered Clouds
7:33 PM 64.4 °F - 44.6 °F 49% 29.61 in 10.0 mi SE 3.5 mph - N/A   Scattered Clouds
7:52 PM 64.4 °F - 44.6 °F 49% 29.62 in 10.0 mi East 4.6 mph - N/A   Scattered Clouds
8:13 PM 62.6 °F - 44.6 °F 52% 29.59 in 10.0 mi East 6.9 mph - N/A   Scattered Clouds
8:33 PM 62.6 °F - 44.6 °F 52% 29.60 in 10.0 mi East 5.8 mph - N/A   Scattered Clouds
8:52 PM 60.8 °F - 44.6 °F 55% 29.59 in 10.0 mi ESE 5.8 mph - N/A   Clear
9:13 PM 60.8 °F - 44.6 °F 55% 29.60 in 10.0 mi SE 4.6 mph - N/A   Clear
9:33 PM 57.2 °F - 44.6 °F 63% 29.61 in 10.0 mi East 5.8 mph - N/A   Clear
9:52 PM 59.0 °F - 46.4 °F 63% 29.60 in 10.0 mi East 5.8 mph - N/A   Clear
10:13 PM 57.2 °F - 44.6 °F 63% 29.59 in 10.0 mi ESE 8.1 mph - N/A   Clear
10:33 PM 60.8 °F - 42.8 °F 52% 29.60 in 10.0 mi SE 3.5 mph - N/A   Clear
10:52 PM 59.0 °F - 42.8 °F 55% 29.57 in 10.0 mi ESE 11.5 mph - N/A   Clear
11:13 PM 59.0 °F - 42.8 °F 55% 29.56 in 10.0 mi ESE 11.5 mph - N/A   Clear
11:32 PM 60.8 °F - 42.8 °F 52% 29.55 in 10.0 mi SE 8.1 mph - N/A   Clear
11:53 PM 57.2 °F - 42.8 °F 59% 29.55 in 10.0 mi ESE 9.2 mph - N/A   Clear